Location: El Conde
(10.2895°N, 67.2409°W)
Time: 07:21:28
(UTC+00:00)

Cosmos 1666 - Pass Details

Date: 19 May 2024
Orbit: 438 x 453 km, 82.5° (Epoch: 22 June)

Event Time Altitude Azimuth Distance (km) Brightness Sun altitude
Rises 23:27:58 0° 11° (N) 2,432 6.3 -10.8°
Reaches altitude 10° 23:30:12 10° 23° (NNE) 1,559 5.1 -11.3°
Maximum altitude 23:33:11 29° 85° (E) 847 3.3 -12.0°
Enters shadow 23:34:48 19° 130° (SE) 1,103 3.8 -12.4°
